Location: Evansville
(37.9747°N, 87.5558°W)
Time: 13:39:43
(UTC-06:00)

Hubble Space Telescope - Visible Passes

Search period start: 12 December 2025 00:00
Search period end: 22 December 2025 00:00
Orbit: 480 x 483 km, 28.5° (Epoch: 12 December)

Date Brightness Start Highest point End Pass type
(mag) Time Alt. Az. Time Alt. Az. Time Alt. Az.
12 Dec 2.6 18:02:28 10° SW 18:05:13 19° S 18:06:51 15° SE visible
13 Dec 2.7 17:33:15 10° SW 17:36:00 19° S 17:38:45 10° SE visible
13 Dec 3.6 19:12:57 10° SW 19:13:32 12° SW 19:13:32 12° SW visible
14 Dec 2.8 17:03:59 10° SW 17:06:44 19° S 17:09:30 10° SE visible
14 Dec 3.0 18:43:42 10° SW 18:46:03 16° S 18:46:05 16° S visible
15 Dec 3.0 18:14:27 10° SW 18:16:46 16° S 18:18:42 11° SSE visible
16 Dec 3.2 17:45:11 10° SW 17:47:29 15° S 17:49:47 10° SSE visible
17 Dec 3.2 17:15:54 10° SW 17:18:10 15° S 17:20:27 10° SSE visible
